FENGYUN 1C DEB, 32101

Orbit data source: Space-Track

FENGYUN 1C DEB, 32101 is space debris in SSO originally from a launch on Mon, 10 May 1999 UTC launched from the Taiyaun Space Center, China (TSC). Fengyun 1C debris stems from the Chinese weather satellite Fengyun-1C, which was intentionally destroyed by a Chinese anti-satellite missile in 2007. This event dramatically increased the amount of space debris, with thousands of trackable fragments posing hazards to satellites and human spaceflight. The Fengyun 1C debris cloud has become a focal point in discussions about space sustainability and the need for international regulations to prevent the creation of new debris.

Loading next visibility...
Identifier
32101, 1999-025CQT
Orbit
SSO
Country
Flag of CNCN / PRC
Related business
Manufacturer
Unknown
Mission
Spacecraft
Bus & Motor
Unknown
Mass
Unknown
Launch date (UTC)
1999-05-10 (27 years ago)
Launch vehicle
Unknown
Launch site
Taiyaun Space Center, China (TSC)
Object type
Payload
Rocket body
Debris
Shape & HBR
Unknown shape, 0.1 m
Radar Cross Section
Small (<0.1 m²)

Expand to show TLE details & history
Last TLE update: 1 day ago

TLE from 1 day ago
0 FENGYUN 1C DEB
1 32101U 99025CQT 26163.97460096  .00002192  00000-0  13559-2 0  9990
2 32101  99.0290  66.4094 0122312  91.3778 270.1403 14.02659506957368
Epoch: 2026-06-12T23:23Z
TLE epoch observation values (Epoch: 2026-06-12T23:23:25.522Z)
Latitude
-0.00005°
Longitude
174.25672°
Altitude
888.351 km
Speed
7.408 km/s
True Right ascension
04h 25m 38s
True Declination
0° 00' 00"
Sunlit
Object was in daylight at epoch
Visualization orbit readout
Latitude
Unknown
Longitude
Unknown
Altitude
Unknown
Speed
Unknown
Apparent Right ascension
Unknown
Apparent Declination
Unknown
Sunlit
N/A
Visualization observer readout
Local Sidereal Time
16:58:57
Azimuth
Unknown
Elevation
Unknown
Doppler factor
Unknown
Orbital elements
Apogee altitude
970.595 km
Perigee altitude
792.999 km
Semi-major axis
7,259.934 km
Eccentricity
0.01223
Inclination
99.029°
RAAN
66.4094°
Arg. of periapsis
91.3778°
True anomaly
268.7388°
Mean anomaly
270.1403°
Eccentric anomaly
269.43954°
Mean motion
3.50868 °/min
Orbital period
102.6 mins
BSTAR
0.0013559
Loading maneuver chart data...
Computing Atmospheric mass density...

Documentation

Showing up to 5 results
|